EN

Hourly Weather Luczyce

Today, 1 December, Tuesday

Time Temperature Precipitation Wind Pressure Humidity
00:00 -1°C° 0 mm 1 mps 741 mmHg 78%
01:00 -5°C° 0 mm 2 mps 740 mmHg 85%
02:00 -3°C° 0 mm 1 mps 740 mmHg 84%
03:00 -3°C° 0 mm 1 mps 740 mmHg 83%
04:00 -3°C° 0 mm 1 mps 740 mmHg 82%
05:00 -3°C° 0 mm 1 mps 740 mmHg 82%
06:00 -3°C° 0 mm 1 mps 740 mmHg 82%
07:00 -3°C° 0 mm 1 mps 740 mmHg 82%
08:00 -2°C° 0 mm 1 mps 740 mmHg 78%
09:00 -3°C° 0 mm 2 mps 740 mmHg 74%
10:00 -2°C° 0 mm 2 mps 740 mmHg 70%
11:00 0°C° 0 mm 1 mps 740 mmHg 69%
12:00 +1°C° 0 mm 1 mps 740 mmHg 68%
13:00 +1°C° 0 mm 2 mps 739 mmHg 67%
14:00 0°C° 0 mm 1 mps 739 mmHg 73%
15:00 -1°C° 0 mm 1 mps 739 mmHg 78%
16:00 -2°C° 0 mm 1 mps 739 mmHg 83%
17:00 -2°C° 0 mm 1 mps 739 mmHg 84%
18:00 -2°C° 0 mm 1 mps 740 mmHg 85%
19:00 -2°C° 0 mm 1 mps 740 mmHg 86%
20:00 -3°C° 0 mm 1 mps 740 mmHg 86%
21:00 -3°C° 0 mm 1 mps 741 mmHg 87%
22:00 -4°C° 0 mm 0 mps 741 mmHg 87%
23:00 -4°C° 0 mm 0 mps 741 mmHg 87%

Tomorrow, 2 December, Wednesday

Time Temperature Precipitation Wind Pressure Humidity
00:00 -4°C° 0 mm 0 mps 741 mmHg 87%
01:00 -4°C° 0 mm 0 mps 741 mmHg 87%
02:00 -4°C° 0 mm 0 mps 741 mmHg 88%
03:00 -4°C° 0 mm 1 mps 741 mmHg 88%
04:00 -4°C° 0 mm 1 mps 740 mmHg 89%
05:00 -4°C° 0 mm 1 mps 740 mmHg 89%
06:00 -4°C° 0 mm 1 mps 740 mmHg 90%
07:00 -4°C° 0 mm 1 mps 740 mmHg 90%
08:00 -3°C° 0 mm 1 mps 740 mmHg 86%
09:00 -5°C° 0 mm 2 mps 740 mmHg 83%
10:00 -4°C° 0 mm 2 mps 740 mmHg 79%
11:00 -3°C° 0 mm 2 mps 740 mmHg 76%
12:00 -3°C° 0 mm 2 mps 739 mmHg 74%
13:00 -2°C° 0 mm 2 mps 739 mmHg 72%
14:00 -3°C° 0 mm 2 mps 739 mmHg 76%
15:00 -4°C° 0 mm 2 mps 738 mmHg 81%
16:00 -5°C° 0 mm 2 mps 738 mmHg 85%
17:00 -5°C° 0 mm 2 mps 738 mmHg 86%
18:00 -5°C° 0 mm 2 mps 737 mmHg 86%
19:00 -5°C° 0 mm 2 mps 737 mmHg 87%
20:00 -5°C° 0 mm 2 mps 737 mmHg 86%
21:00 -5°C° 0 mm 2 mps 737 mmHg 85%
22:00 -5°C° 0 mm 2 mps 736 mmHg 83%
23:00 -5°C° 0 mm 2 mps 736 mmHg 82%

Day after tomorrow, 3 December, Thursday

Time Temperature Precipitation Wind Pressure Humidity
00:00 -3°C° 0 mm 1 mps 736 mmHg 81%
01:00 -4°C° 0 mm 1 mps 735 mmHg 81%
02:00 -3°C° 0 mm 1 mps 735 mmHg 79%
03:00 -3°C° 0 mm 1 mps 735 mmHg 77%
04:00 -3°C° 0 mm 1 mps 735 mmHg 76%
05:00 -3°C° 0 mm 1 mps 734 mmHg 75%
06:00 -3°C° 0 mm 1 mps 734 mmHg 74%
07:00 -5°C° 0 mm 2 mps 734 mmHg 73%
08:00 -4°C° 0 mm 2 mps 733 mmHg 71%
09:00 -3°C° 0 mm 2 mps 733 mmHg 69%
10:00 -2°C° 0 mm 2 mps 733 mmHg 66%
11:00 -1°C° 0 mm 2 mps 733 mmHg 65%
12:00 +1°C° 0 mm 1 mps 732 mmHg 65%
13:00 +2°C° 0 mm 1 mps 732 mmHg 64%
14:00 +2°C° 0 mm 1 mps 731 mmHg 66%
15:00 +1°C° 0 mm 1 mps 731 mmHg 68%
16:00 +1°C° 0 mm 1 mps 731 mmHg 70%
17:00 -1°C° 0 mm 2 mps 730 mmHg 71%
18:00 -1°C° 0 mm 2 mps 730 mmHg 72%
19:00 +1°C° 0 mm 2 mps 730 mmHg 73%
20:00 +1°C° 0 mm 2 mps 730 mmHg 74%
21:00 +1°C° 0 mm 2 mps 730 mmHg 75%
22:00 -1°C° 0 mm 2 mps 729 mmHg 76%
23:00 +1°C° 0 mm 2 mps 729 mmHg 77%

4 December, Friday

Time Temperature Precipitation Wind Pressure Humidity
00:00 +1°C° 0 mm 2 mps 729 mmHg 78%
01:00 0°C° 0 mm 3 mps 728 mmHg 80%
02:00 0°C° 0 mm 3 mps 728 mmHg 80%
03:00 0°C° 0 mm 3 mps 727 mmHg 81%
04:00 -1°C° 0 mm 4 mps 727 mmHg 82%
05:00 -1°C° 0 mm 4 mps 727 mmHg 80%
06:00 0°C° 0 mm 4 mps 727 mmHg 79%
07:00 0°C° 0 mm 4 mps 727 mmHg 78%
08:00 0°C° 0 mm 4 mps 727 mmHg 75%
09:00 +1°C° 0 mm 4 mps 726 mmHg 72%
10:00 +2°C° 0 mm 5 mps 726 mmHg 69%
11:00 +3°C° 0 mm 5 mps 726 mmHg 70%
12:00 +3°C° 0 mm 5 mps 726 mmHg 71%
13:00 +5°C° 0 mm 5 mps 726 mmHg 72%
14:00 +3°C° 0 mm 5 mps 726 mmHg 76%
15:00 +2°C° 0 mm 5 mps 726 mmHg 80%
16:00 +2°C° 0 mm 5 mps 726 mmHg 85%
17:00 +1°C° 0 mm 5 mps 726 mmHg 84%
18:00 +1°C° 0 mm 4 mps 726 mmHg 84%
19:00 +1°C° 0 mm 4 mps 726 mmHg 84%
20:00 +1°C° 0 mm 4 mps 727 mmHg 83%
21:00 +1°C° 0 mm 4 mps 727 mmHg 83%
22:00 +2°C° 0 mm 3 mps 727 mmHg 82%
23:00 +2°C° 0 mm 3 mps 727 mmHg 82%

5 December, Saturday

Time Temperature Precipitation Wind Pressure Humidity
00:00 +2°C° 0 mm 3 mps 727 mmHg 82%
01:00 +3°C° 0 mm 3 mps 727 mmHg 82%
02:00 +3°C° 0 mm 3 mps 727 mmHg 83%
03:00 +3°C° 0 mm 3 mps 728 mmHg 84%
04:00 +3°C° 0 mm 3 mps 728 mmHg 84%
05:00 +3°C° 0 mm 3 mps 728 mmHg 84%
06:00 +3°C° 0 mm 3 mps 728 mmHg 85%
07:00 +3°C° 0 mm 3 mps 728 mmHg 85%
08:00 +4°C° 0 mm 4 mps 728 mmHg 84%
09:00 +4°C° 0 mm 4 mps 729 mmHg 82%
10:00 +5°C° 0 mm 4 mps 729 mmHg 81%
11:00 +5°C° 0 mm 4 mps 729 mmHg 80%
12:00 +6°C° 0 mm 4 mps 729 mmHg 79%
13:00 +6°C° 0 mm 4 mps 729 mmHg 78%
14:00 +6°C° 0 mm 4 mps 729 mmHg 79%
15:00 +6°C° 0 mm 4 mps 729 mmHg 80%
16:00 +5°C° 0 mm 5 mps 729 mmHg 81%
17:00 +5°C° 0 mm 5 mps 729 mmHg 82%
18:00 +5°C° 0 mm 5 mps 729 mmHg 82%
19:00 +5°C° 0 mm 5 mps 729 mmHg 83%
20:00 +4°C° 0 mm 6 mps 729 mmHg 83%
21:00 +4°C° 0 mm 6 mps 729 mmHg 83%
22:00 +4°C° 0 mm 6 mps 729 mmHg 82%
23:00 +4°C° 0 mm 6 mps 729 mmHg 83%

6 December, Sunday

Time Temperature Precipitation Wind Pressure Humidity
00:00 +4°C° 0 mm 6 mps 729 mmHg 83%
01:00 +4°C° 0 mm 6 mps 729 mmHg 83%
02:00 +4°C° 0 mm 6 mps 728 mmHg 83%
03:00 +4°C° 0 mm 6 mps 728 mmHg 82%
04:00 +4°C° 0 mm 6 mps 728 mmHg 82%
05:00 +4°C° 0 mm 6 mps 727 mmHg 82%
06:00 +4°C° 0 mm 6 mps 727 mmHg 82%
07:00 +4°C° 0 mm 6 mps 727 mmHg 82%
08:00 +5°C° 0 mm 6 mps 727 mmHg 80%
09:00 +7°C° 0 mm 6 mps 727 mmHg 77%
10:00 +7°C° 0 mm 6 mps 727 mmHg 75%
11:00 +8°C° 0 mm 7 mps 727 mmHg 72%
12:00 +8°C° 0 mm 7 mps 726 mmHg 69%
13:00 +9°C° 0 mm 7 mps 726 mmHg 66%
14:00 +9°C° 0 mm 7 mps 726 mmHg 69%
15:00 +7°C° 0 mm 8 mps 726 mmHg 72%
16:00 +7°C° 0 mm 8 mps 726 mmHg 74%
17:00 +8°C° 0 mm 7 mps 726 mmHg 77%
18:00 +7°C° 0 mm 6 mps 727 mmHg 79%
19:00 +7°C° 0 mm 5 mps 727 mmHg 82%
20:00 +6°C° 0 mm 5 mps 727 mmHg 83%
21:00 +6°C° 0 mm 4 mps 728 mmHg 85%
22:00 +7°C° 0 mm 3 mps 728 mmHg 87%
23:00 +5°C° 0 mm 3 mps 729 mmHg 87%
Show more